{"data":{"norad_id":54203,"intl_designator":"2022-141AY","name":"STARLINK-5247","alt_names":[],"object_type":"PAYLOAD","status":"ACTIVE","operator":null,"country":"US","launch_date":"2022-10-28","launch_site_code":"AFWTR","launch_vehicle":null,"mission":null,"orbit_class":"UNKNOWN","rcs_meters":null,"size_class":null,"mass_kg":null,"dimensions":null,"purposes":["comms"],"wikipedia_slug":null,"has_3d_model":false,"image_url":null,"decayed_at":null,"tle_current":{"epoch":"2026-05-25T00:26:09.303936Z","epoch_age_seconds":84011,"freshness":"FRESH","line1":"1 54203U 22141AY  26145.01816324  .00000647  00000+0  58745-4 0  9996","line2":"2 54203  53.2148  11.2731 0001224  95.7388 264.3744 15.08840292197526","mean_motion":15.08840292,"eccentricity":0.0001224,"inclination_deg":53.2148,"raan_deg":11.2731,"arg_perigee_deg":95.7388,"mean_anomaly_deg":264.3744,"bstar":5.8745e-5,"rev_number":19752,"period_min":95.437536208107,"perigee_km":538.8957479867,"apogee_km":540.58924488743,"semimajor_km":6917.8794964371,"source":"CELESTRAK","updated_at":"2026-05-25T13:38:17.685977Z"}}}